[[{"header":{"parameterUnit":"m.s-1","parameterCategory":1,"la1":30.2991,"la2":30.254,"lo1":-89.0895,"lo2":-89.0444,"dy":0.0017,"dx":0.0017,"nx":28,"ny":28,"refTime":"2025-09-12T09:00:00:Z","depth":0,"parameterNumber":2,"parameterNumberName":"U-component_of_WINDS"},"data":[0,0,0,0,0,0,0,0,0,0,0,0,0,0,0,0,0,0,0,0,0,0,0,0,0,0,0,0,0,0,0,0,0,0,0,0,0,0,0,0,0,0,0,0,0,0,0,0,0,0,0,0,0,0,0,0,0,0,0.2491,0.2491,0,0.2472,0.2472,0.2472,0.247,0.247,0.2471,0.2471,0.245,0.245,0.2449,0,0,0,0,0,0,0,0,0,0,0,0,0,0.2524,0.2523,0.2491,0.2491,0.249,0.2472,0.2472,0.2472,0.247,0.247,0.2471,0.2471,0.2451,0.245,0.2449,0,0,0,0,0,0,0,0,0,0,0,0,0,0.2508,0.2523,0.2491,0.2487,0.2487,0.2472,0.2472,0.2472,0.247,0.247,0.2471,0.2471,0.2451,0.245,0.2449,0.2436,0,0,0.2445,0.2445,0,0,0,0,0,0,0,0,0.2509,0.2507,0.2488,0.2488,0.2487,0.2474,0.2476,0.246,0.247,0.2476,0.2471,0.2471,0.2458,0.2456,0.2452,0.2435,0.2434,0.2445,0.2445,0.2444,0.2444,0,0,0,0,0,0,0,0.251,0.2508,0.2483,0.2488,0.2487,0.2487,0.2485,0.2473,0.2466,0.2476,0.2476,0.2474,0.2458,0.2453,0.2451,0.2434,0.2445,0.2444,0.2444,0.2443,0.2406,0.2406,0,0,0,0,0,0,0.2512,0.2508,0.2484,0.2483,0.2499,0.2486,0.2484,0.2478,0.2466,0.2464,0.2473,0.2474,0.2455,0.2453,0.2451,0.2435,0.2444,0.2443,0.2442,0.2406,0.2406,0.2406,0,0,0,0,0,0,0.2513,0.251,0.2485,0.2496,0.2492,0.2485,0.2478,0.2477,0.2473,0.2464,0.2462,0.247,0.2455,0.2452,0.244,0.2435,0.2443,0.2442,0.2407,0.2406,0.2406,0.2404,0,0,0,0,0,0,0.2514,0.251,0.2505,0.2496,0.2492,0.2474,0.2478,0.2477,0.2471,0.2471,0.2461,0.2459,0.2455,0.2442,0.2439,0.2433,0.2441,0.2407,0.2406,0.2406,0.2405,0.2404,0.2403,0,0,0,0,0,0.2515,0.2505,0.2505,0.2502,0.2486,0.2474,0.2472,0.2468,0.2471,0.2466,0.246,0.2459,0.2436,0.244,0.2437,0.2431,0.2407,0.2407,0.2406,0.2405,0.2404,0.2403,0,0,0,0,0,0,0.2513,0.2504,0.2503,0.249,0.2483,0.2474,0.2467,0.2467,0.2458,0.2458,0.2454,0.2451,0.2439,0.2434,0.2439,0.2419,0.2422,0.242,0.2422,0.2421,0.242,0.2421,0.244,0,0,0,0,0,0.2511,0.2503,0.2495,0.2484,0.2481,0.2475,0.2469,0.2467,0.2459,0.2456,0.245,0.2442,0.2433,0.2427,0.2418,0.2404,0.2402,0.2399,0.2398,0.2397,0.2396,0.2389,0.2387,0.2403,0.2403,0.2403,0,0,0.2507,0.2501,0.2496,0.2484,0.2478,0.2469,0.2472,0.2463,0.2456,0.2454,0.2443,0.2438,0.2429,0.2416,0.241,0.2411,0.2391,0.2396,0.2396,0.2395,0.2388,0.2386,0.2385,0.2403,0.2403,0.2403,0,0,0.2496,0.249,0.2481,0.2475,0.2467,0.2463,0.2461,0.2452,0.2449,0.2437,0.2436,0.2428,0.2412,0.2406,0.2401,0.2388,0.2387,0.2386,0.2381,0.2374,0.2373,0.2372,0.2367,0.2366,0.2384,0.2384,0.2384,0,0.2492,0.2479,0.2476,0.2467,0.2462,0.2461,0.2451,0.2446,0.2435,0.2431,0.2433,0.2414,0.2407,0.2394,0.2391,0.2386,0.2384,0.2386,0.2373,0.2372,0.2371,0.2367,0.2365,0.2384,0.2384,0.2384,0.2384,0,0.2474,0.2466,0.2459,0.2449,0.2443,0.2434,0.243,0.2424,0.2423,0.2419,0.2407,0.24,0.239,0.2386,0.2384,0.2372,0.2373,0.2374,0.2377,0.2369,0.2365,0.2364,0.2384,0.2384,0.2384,0.2384,0,0,0.246,0.245,0.2447,0.2443,0.2434,0.2427,0.2418,0.2409,0.2405,0.2397,0.239,0.2377,0.2378,0.2372,0.237,0.2364,0.2355,0.2366,0.2366,0.2364,0.2342,0.2341,0.2339,0.2355,0.2354,0.2354,0.2343,0,0.2448,0.2432,0.2429,0.2415,0.2408,0.2407,0.2399,0.2393,0.2389,0.2382,0.2378,0.2369,0.2371,0.2368,0.2362,0.2357,0.235,0.2358,0.2347,0.2347,0.2349,0.2337,0.2336,0.2325,0.2341,0.2341,0.2341,0,0.243,0.2424,0.2409,0.2402,0.2399,0.2392,0.2384,0.2377,0.237,0.2368,0.2362,0.236,0.2351,0.2355,0.2342,0.2348,0.2343,0.234,0.234,0.2338,0.2343,0.2335,0.2322,0.232,0.2338,0.2338,0.2338,0,0.2422,0.2409,0.2399,0.2395,0.2387,0.2382,0.2378,0.2372,0.2367,0.2359,0.2356,0.2348,0.2343,0.2337,0.2333,0.2337,0.2321,0.2325,0.2319,0.2319,0.2315,0.2315,0.2301,0.2313,0.2313,0.2313,0.2313,0,0.2408,0.2399,0.2395,0.2388,0.2379,0.2376,0.2367,0.2363,0.2357,0.235,0.2349,0.2343,0.2339,0.2331,0.2329,0.2319,0.2317,0.2315,0.2314,0.2314,0.2315,0.2311,0.2312,0.2312,0.2312,0.2312,0.2313,0,0.2396,0.2393,0.2382,0.2375,0.2374,0.2367,0.2361,0.2355,0.2352,0.2343,0.2341,0.2336,0.2327,0.2324,0.2313,0.2311,0.23,0.23,0.2302,0.2302,0.2297,0.2297,0.2279,0.2277,0.229,0.229,0.229,0,0.2387,0.2381,0.2374,0.2369,0.2366,0.2358,0.2353,0.2351,0.2346,0.2338,0.2333,0.2325,0.2318,0.2305,0.23,0.2292,0.2292,0.2286,0.2291,0.2292,0.2292,0.2293,0.2292,0.2285,0.2285,0.2285,0.2285,0,0.2372,0.2371,0.2364,0.2357,0.2352,0.2346,0.234,0.2337,0.2333,0.2328,0.232,0.2315,0.2305,0.2296,0.2289,0.2285,0.2284,0.2284,0.2282,0.2282,0.2284,0.2283,0.23,0.2284,0.2284,0.2284,0.2284,0.2284,0.2361,0.2356,0.235,0.2343,0.2339,0.2334,0.2328,0.2325,0.2318,0.231,0.2309,0.23,0.2294,0.2284,0.228,0.2273,0.2274,0.2272,0.2271,0.227,0.227,0.2286,0.2271,0.2271,0.2272,0.2272,0.2272,0,0.2346,0.2343,0.2336,0.2329,0.2323,0.2325,0.2319,0.2314,0.2306,0.2301,0.2295,0.2286,0.2278,0.2274,0.2266,0.2262,0.2261,0.226,0.226,0.2259,0.2269,0.2272,0.226,0.226,0.226,0.226,0.226,0.226,0.2338,0.2328,0.2327,0.2316,0.2312,0.2304,0.2301,0.2296,0.2292,0.2283,0.2277,0.2274,0.2269,0.2261,0.2255,0.2253,0.2251,0.2249,0.2248,0.2257,0.2258,0.226,0.2262,0.2248,0.2248,0.2238,0.2238,0.2238]},{"header":{"parameterUnit":"m.s-1","parameterCategory":1,"la1":30.2991,"la2":30.254,"lo1":-89.0895,"lo2":-89.0444,"dy":0.0017,"dx":0.0017,"nx":28,"ny":28,"refTime":"2025-09-12T09:00:00:Z","depth":0,"parameterNumber":3,"parameterNumberName":"V-component_of_WINDS"},"data":[0,0,0,0,0,0,0,0,0,0,0,0,0,0,0,0,0,0,0,0,0,0,0,0,0,0,0,0,0,0,0,0,0,0,0,0,0,0,0,0,0,0,0,0,0,0,0,0,0,0,0,0,0,0,0,0,0,0,-3.6904,-3.6905,0,-3.701,-3.7011,-3.7012,-3.6993,-3.6992,-3.699,-3.6988,-3.7092,-3.7097,-3.7101,0,0,0,0,0,0,0,0,0,0,0,0,0,-3.6681,-3.6686,-3.6904,-3.6905,-3.6906,-3.701,-3.7011,-3.7013,-3.6994,-3.6991,-3.6989,-3.6987,-3.7091,-3.7096,-3.7102,0,0,0,0,0,0,0,0,0,0,0,0,0,-3.6782,-3.6687,-3.6903,-3.691,-3.6911,-3.7009,-3.7011,-3.7013,-3.6994,-3.6991,-3.6989,-3.6986,-3.7089,-3.7096,-3.7102,-3.72,0,0,-3.7123,-3.7126,0,0,0,0,0,0,0,0,-3.6776,-3.679,-3.6907,-3.6909,-3.6911,-3.6986,-3.6971,-3.7076,-3.6995,-3.6963,-3.6988,-3.6985,-3.7059,-3.7068,-3.7094,-3.7205,-3.7209,-3.7124,-3.7128,-3.7131,-3.7133,0,0,0,0,0,0,0,-3.6769,-3.6785,-3.6946,-3.6909,-3.6911,-3.6906,-3.6917,-3.6991,-3.7025,-3.6965,-3.6964,-3.6977,-3.7059,-3.7087,-3.7096,-3.7211,-3.7123,-3.7129,-3.7134,-3.7136,-3.7407,-3.741,0,0,0,0,0,0,-3.6761,-3.6779,-3.6942,-3.6949,-3.6836,-3.6912,-3.6925,-3.6964,-3.7024,-3.7031,-3.6979,-3.6976,-3.7077,-3.7088,-3.71,-3.7218,-3.7131,-3.7137,-3.7141,-3.7404,-3.7408,-3.7411,0,0,0,0,0,0,-3.6756,-3.6776,-3.6938,-3.6864,-3.6884,-3.6919,-3.6964,-3.6968,-3.6996,-3.7035,-3.704,-3.7002,-3.7075,-3.709,-3.7176,-3.7221,-3.714,-3.7146,-3.74,-3.7405,-3.741,-3.7455,0,0,0,0,0,0,-3.675,-3.6774,-3.6812,-3.6865,-3.6888,-3.7013,-3.6967,-3.6972,-3.7008,-3.7005,-3.7058,-3.7064,-3.7074,-3.7166,-3.7182,-3.7229,-3.7151,-3.7397,-3.7403,-3.7408,-3.745,-3.7461,-3.747,0,0,0,0,0,-3.6742,-3.682,-3.6814,-3.6834,-3.6937,-3.7016,-3.7029,-3.7041,-3.7012,-3.705,-3.7075,-3.7062,-3.7214,-3.7174,-3.7193,-3.7243,-3.7394,-3.7401,-3.7408,-3.7445,-3.7459,-3.747,0,0,0,0,0,0,-3.677,-3.6827,-3.6821,-3.6919,-3.6963,-3.7013,-3.7061,-3.7055,-3.7107,-3.7101,-3.7113,-3.7125,-3.7212,-3.7236,-3.7191,-3.734,-3.7299,-3.7311,-3.7321,-3.7335,-3.7345,-3.7337,-3.7157,0,0,0,0,0,-3.6788,-3.6848,-3.6894,-3.6976,-3.6998,-3.7026,-3.7061,-3.7067,-3.7112,-3.713,-3.7161,-3.7205,-3.7262,-3.73,-3.7355,-3.7453,-3.7464,-3.7497,-3.7507,-3.7515,-3.7524,-3.7578,-3.7593,-3.7435,-3.7435,-3.7434,0,0,-3.6825,-3.6863,-3.69,-3.6983,-3.7017,-3.7079,-3.7042,-3.7108,-3.7154,-3.714,-3.7223,-3.7247,-3.7296,-3.7389,-3.7431,-3.7411,-3.7571,-3.7524,-3.7531,-3.7535,-3.7587,-3.7602,-3.7615,-3.7439,-3.7438,-3.7438,0,0,-3.6923,-3.6959,-3.7031,-3.7067,-3.7121,-3.7139,-3.7156,-3.7207,-3.7223,-3.7307,-3.7298,-3.7351,-3.745,-3.7486,-3.7517,-3.763,-3.7619,-3.7647,-3.7701,-3.7753,-3.7766,-3.7777,-3.7817,-3.7831,-3.7657,-3.7657,-3.7657,0,-3.6962,-3.7055,-3.7068,-3.7136,-3.7172,-3.7164,-3.7237,-3.727,-3.7339,-3.7363,-3.7341,-3.7466,-3.7498,-3.7599,-3.7626,-3.7652,-3.7671,-3.7641,-3.7763,-3.7774,-3.7785,-3.7823,-3.7838,-3.766,-3.7659,-3.7659,-3.7659,0,-3.71,-3.7165,-3.7216,-3.7284,-3.7326,-3.7396,-3.7419,-3.7459,-3.7461,-3.7481,-3.7567,-3.7606,-3.7669,-3.7693,-3.7695,-3.7794,-3.778,-3.7761,-3.772,-3.7803,-3.7839,-3.7854,-3.7664,-3.7663,-3.7662,-3.7661,0,0,-3.7219,-3.7294,-3.7312,-3.7343,-3.7402,-3.7452,-3.7521,-3.7584,-3.7619,-3.7666,-3.7724,-3.7808,-3.7791,-3.7826,-3.7832,-3.7878,-3.7965,-3.7852,-3.7854,-3.7872,-3.8076,-3.809,-3.8107,-3.7958,-3.7961,-3.7963,-3.8071,0,-3.7322,-3.7446,-3.746,-3.757,-3.7629,-3.7623,-3.7683,-3.7725,-3.7746,-3.7799,-3.7821,-3.7881,-3.7853,-3.7874,-3.792,-3.7944,-3.8006,-3.7937,-3.8011,-3.8013,-3.7999,-3.8126,-3.8141,-3.8241,-3.8086,-3.8088,-3.809,0,-3.746,-3.7513,-3.7629,-3.7681,-3.7706,-3.776,-3.7819,-3.787,-3.7917,-3.7929,-3.7969,-3.797,-3.804,-3.7997,-3.8093,-3.8046,-3.8077,-3.8094,-3.8098,-3.8105,-3.8056,-3.8136,-3.8273,-3.8288,-3.8112,-3.811,-3.8109,0,-3.7535,-3.7635,-3.7718,-3.7744,-3.7806,-3.7844,-3.7871,-3.7916,-3.7953,-3.8004,-3.8028,-3.8087,-3.8118,-3.8163,-3.8178,-3.8146,-3.8274,-3.8232,-3.8285,-3.8285,-3.8312,-3.831,-3.8456,-3.8333,-3.8333,-3.8332,-3.8332,0,-3.7649,-3.772,-3.7752,-3.7803,-3.7882,-3.7897,-3.7975,-3.8,-3.804,-3.8095,-3.8092,-3.8143,-3.8161,-3.8215,-3.8227,-3.8305,-3.832,-3.833,-3.8333,-3.8331,-3.8329,-3.8351,-3.8344,-3.8336,-3.8335,-3.8335,-3.8334,0,-3.7746,-3.777,-3.7859,-3.7911,-3.7926,-3.7982,-3.8025,-3.8074,-3.8094,-3.8164,-3.8181,-3.8212,-3.8275,-3.8296,-3.8371,-3.838,-3.8471,-3.8467,-3.8455,-3.8455,-3.8507,-3.8502,-3.8672,-3.8695,-3.8557,-3.8558,-3.8559,0,-3.7817,-3.7872,-3.793,-3.7967,-3.7996,-3.8056,-3.8094,-3.8111,-3.8151,-3.8209,-3.825,-3.8314,-3.8365,-3.8466,-3.8495,-3.8553,-3.855,-3.8606,-3.8559,-3.8555,-3.8551,-3.8547,-3.8553,-3.8615,-3.8616,-3.8617,-3.8618,0,-3.7941,-3.795,-3.8006,-3.8067,-3.8113,-3.8161,-3.8207,-3.8238,-3.8261,-3.8306,-3.8371,-3.8411,-3.849,-3.8552,-3.8611,-3.8638,-3.8632,-3.8633,-3.8648,-3.8646,-3.8637,-3.8643,-3.8479,-3.8629,-3.8628,-3.8627,-3.8626,-3.8626,-3.8027,-3.8075,-3.8124,-3.8186,-3.8223,-3.8267,-3.8315,-3.8342,-3.8398,-3.8464,-3.847,-3.8541,-3.8586,-3.8666,-3.8695,-3.875,-3.8734,-3.8756,-3.8762,-3.8767,-3.8771,-3.8629,-3.8761,-3.876,-3.876,-3.876,-3.876,0,-3.815,-3.8181,-3.8239,-3.8305,-3.8354,-3.8345,-3.8396,-3.8437,-3.85,-3.8544,-3.8595,-3.867,-3.8731,-3.8765,-3.8826,-3.8863,-3.8862,-3.8878,-3.8875,-3.8881,-3.8782,-3.8762,-3.8878,-3.8878,-3.8878,-3.8878,-3.8878,-3.8878,-3.822,-3.8302,-3.8317,-3.8417,-3.8447,-3.8518,-3.8548,-3.8588,-3.8623,-3.8707,-3.8758,-3.8781,-3.8821,-3.8884,-3.8939,-3.8947,-3.8969,-3.8988,-3.8994,-3.89,-3.8888,-3.8877,-3.8859,-3.8993,-3.8993,-3.9089,-3.909,-3.9091]}]]